Location: Stilling
(56.0622°N, 9.9882°E)
Time: 23:56:11
(UTC+00:00)

Terra - Pass Details

Date: 13 July 2020
Orbit: 701 x 703 km, 98.2° (Epoch: 03 August)

Event Time Altitude Azimuth Distance (km) Brightness Sun altitude
Exits shadow 21:21:22 - 177° (S) 2,419 4.0 -7.9°
Reaches altitude 10° 21:22:00 10° 179° (S) 2,169 3.8 -8.0°
Maximum altitude 21:26:41 58° 258° (WSW) 822 2.3 -8.3°
Drops below altitude 10° 21:31:25 10° 338° (NNW) 2,185 6.1 -8.6°
Sets 21:33:43 0° 343° (NNW) 3,107 7.3 -8.7°
